GW4147 Weather Reports


Display with metric or nautical units.
time (UTC)temp
F
wind
direction
speed
MPH
gust
MPH
rain 1hr
in
rain 24hr
in
rain mn
in
humidity
%
barometer
mb
20260831151700 90 191 4.0 5.0 0.00 0.00 0.00 45 1017.5
20260831151154 90 304 2.0 9.0 0.00 0.00 0.00 45 1017.3
20260831150644 90 216 3.0 5.0 0.00 0.00 0.00 47 1017.2
20260831150139 89 170 4.0 12.0 0.00 0.00 0.00 47 1017.4
20260831145638 88 196 2.0 7.0 0.00 0.00 0.00 49 1017.4
20260831145135 89 201 5.0 11.0 0.00 0.00 0.00 48 1017.2
20260831144631 89 257 4.0 11.0 0.00 0.00 0.00 49 1017.1
20260831144126 89 178 5.0 11.0 0.00 0.00 0.00 48 1017.3
20260831143626 88 205 5.0 11.0 0.00 0.00 0.00 51 1017.4
20260831143121 88 181 4.0 8.0 0.00 0.00 0.00 51 1017.3
20260831142618 88 180 6.0 7.0 0.00 0.00 0.00 52 1017.3
20260831142113 88 178 3.0 8.0 0.00 0.00 0.00 53 1017.2
20260831141611 88 186 6.0 9.0 0.00 0.00 0.00 53 1017.3
20260831141107 88 243 2.0 6.0 0.00 0.00 0.00 54 1017.5
20260831140606 87 133 4.0 6.0 0.00 0.00 0.00 54 1017.5
20260831140101 87 170 4.0 9.0 0.00 0.00 0.00 55 1017.3
20260831135559 87 184 3.0 8.0 0.00 0.00 0.00 55 1017.0
20260831135055 86 191 5.0 5.0 0.00 0.00 0.00 56 1017.2
20260831134550 86 148 2.0 9.0 0.00 0.00 0.00 58 1017.1
20260831134045 86 190 3.0 6.0 0.00 0.00 0.00 58 1016.8
20260831133544 85 170 5.0 6.0 0.00 0.00 0.00 59 1016.9
20260831133039 85 185 6.0 6.0 0.00 0.00 0.00 59 1016.8
20260831132536 85 150 4.0 6.0 0.00 0.00 0.00 60 1017.0
20260831132034 85 158 3.0 6.0 0.00 0.00 0.00 60 1016.7
20260831131529 85 84 3.0 5.0 0.00 0.00 0.00 62 1016.5
20260831131025 84 174 1.0 3.0 0.00 0.00 0.00 62 1016.5
20260831130525 84 85 2.0 6.0 0.00 0.00 0.00 63 1016.7
20260831130021 83 178 3.0 5.0 0.00 0.00 0.00 64 1016.3
20260831125514 83 151 1.0 4.0 0.00 0.00 0.00 65 1016.3
20260831125010 82 223 3.0 4.0 0.00 0.00 0.00 65 1016.1
20260831124507 82 201 2.0 3.0 0.00 0.00 0.00 66 1016.0
20260831124002 81 206 1.0 4.0 0.00 0.00 0.00 66 1015.9
20260831123501 81 44 0.0 5.0 0.00 0.00 0.00 67 1015.9
20260831122955 81 170 1.0 4.0 0.00 0.00 0.00 67 1015.7
20260831122451 80 188 2.0 4.0 0.00 0.00 0.00 68 1015.8
20260831121946 80 209 2.0 3.0 0.00 0.00 0.00 68 1015.5
20260831121441 80 182 1.0 4.0 0.00 0.00 0.00 68 1015.6
20260831120937 80 198 2.0 3.0 0.00 0.00 0.00 68 1015.5
20260831120431 80 159 1.0 4.0 0.00 0.00 0.00 68 1015.5
20260831115931 80 143 1.0 3.0 0.00 0.00 0.00 68 1015.4
20260831115427 80 182 2.0 3.0 0.00 0.00 0.00 67 1015.3
20260831114922 80 183 1.0 4.0 0.00 0.00 0.00 67 1015.3
20260831114421 80 158 0.0 2.0 0.00 0.00 0.00 67 1015.1
20260831113917 80 39 0.0 4.0 0.00 0.00 0.00 67 1015.2
20260831113416 80 222 1.0 3.0 0.00 0.00 0.00 67 1015.2
20260831112911 80 230 0.0 3.0 0.00 0.00 0.00 67 1015.2
20260831112406 80 195 1.0 3.0 0.00 0.00 0.00 67 1015.1
20260831111901 80 189 1.0 3.0 0.00 0.00 0.00 66 1015.2
20260831111357 80 186 0.0 5.0 0.00 0.00 0.00 66 1014.9
20260831110852 80 122 1.0 4.0 0.00 0.00 0.00 66 1014.8
20260831110353 80 102 0.0 3.0 0.00 0.00 0.00 66 1014.9
20260831105851 79 139 2.0 4.0 0.00 0.00 0.00 66 1015.0
20260831105347 80 202 0.0 3.0 0.00 0.00 0.00 66 1014.9
20260831104842 80 180 2.0 4.0 0.00 0.00 0.00 65 1014.8
20260831104338 80 211 1.0 4.0 0.00 0.00 0.00 65 1014.9
20260831103838 80 111 0.0 3.0 0.00 0.00 0.00 65 1014.8
20260831103334 80 55 0.0 3.0 0.00 0.00 0.00 64 1014.8
20260831102829 80 33 0.0 3.0 0.00 0.00 0.00 64 1015.0
20260831102324 80 107 1.0 3.0 0.00 0.00 0.00 63 1014.9
20260831101819 81 147 0.0 2.0 0.00 0.00 0.00 63 1014.7
20260831101314 81 194 2.0 3.0 0.00 0.00 0.00 62 1014.8
20260831100810 81 177 3.0 3.0 0.00 0.00 0.00 62 1014.7
20260831100306 81 110 0.0 3.0 0.00 0.00 0.00 62 1014.9
20260831095805 81 87 2.0 3.0 0.00 0.00 0.00 62 1014.6
20260831095300 81 121 1.0 3.0 0.00 0.00 0.00 61 1014.7
20260831094755 82 221 2.0 3.0 0.00 0.00 0.00 61 1014.6
20260831094250 82 163 1.0 2.0 0.00 0.00 0.00 60 1014.7
20260831093746 82 28 1.0 3.0 0.00 0.00 0.00 59 1014.8
20260831093240 82 204 1.0 3.0 0.00 0.00 0.00 59 1014.6
20260831092737 82 197 3.0 4.0 0.00 0.00 0.00 59 1014.6
20260831092232 83 192 3.0 3.0 0.00 0.00 0.00 58 1014.6
20260831091731 83 169 4.0 4.0 0.00 0.00 0.00 58 1014.7
20260831091227 83 187 2.0 4.0 0.00 0.00 0.00 57 1014.5
20260831090723 83 123 2.0 4.0 0.00 0.00 0.00 57 1014.4
20260831090219 83 188 3.0 6.0 0.00 0.00 0.00 56 1014.3
20260831085714 84 95 1.0 4.0 0.00 0.00 0.00 56 1014.5
20260831085204 84 176 3.0 5.0 0.00 0.00 0.00 56 1014.5
20260831084659 84 186 3.0 6.0 0.00 0.00 0.00 55 1014.3
20260831084155 84 258 0.0 8.0 0.00 0.00 0.00 55 1014.4
20260831083651 84 182 3.0 5.0 0.00 0.00 0.00 55 1014.5
20260831083146 84 204 3.0 4.0 0.00 0.00 0.00 54 1014.4
20260831082645 84 21 1.0 6.0 0.00 0.00 0.00 54 1014.4
20260831082140 84 235 1.0 5.0 0.00 0.00 0.00 54 1014.5
20260831081636 84 207 3.0 4.0 0.00 0.00 0.00 54 1014.3
20260831081132 84 180 5.0 5.0 0.00 0.00 0.00 53 1014.5
20260831080627 84 202 3.0 3.0 0.00 0.00 0.00 54 1014.4
20260831080121 84 234 1.0 5.0 0.00 0.00 0.00 53 1014.5
20260831075618 83 85 2.0 5.0 0.00 0.00 0.00 54 1014.6
20260831075113 83 188 2.0 4.0 0.00 0.00 0.00 54 1014.2
20260831074612 83 287 1.0 5.0 0.00 0.00 0.00 54 1014.2
20260831074107 83 173 1.0 2.0 0.00 0.00 0.00 54 1014.2
20260831073602 83 166 2.0 2.0 0.00 0.00 0.00 54 1014.2
20260831073101 83 139 2.0 2.0 0.00 0.00 0.00 54 1014.3
20260831072556 83 158 2.0 2.0 0.00 0.00 0.00 53 1014.1
20260831072054 83 25 0.0 4.0 0.00 0.00 0.00 54 1014.2
20260831071551 83 242 0.0 2.0 0.00 0.00 0.00 54 1014.2
20260831071047 82 269 0.0 3.0 0.00 0.00 0.00 55 1014.1
20260831070546 83 203 0.0 3.0 0.00 0.00 0.00 55 1014.4
20260831070041 83 185 0.0 2.0 0.00 0.00 0.00 54 1014.3
20260831065538 84 268 0.0 2.0 0.00 0.00 0.00 54 1014.1
20260831065038 84 219 0.0 2.0 0.00 0.00 0.00 53 1014.3
20260831064533 84 197 0.0 2.0 0.00 0.00 0.00 53 1014.3
20260831064029 85 166 3.0 3.0 0.00 0.00 0.00 52 1014.3
20260831063525 85 215 0.0 2.0 0.00 0.00 0.00 51 1014.3
20260831063020 85 212 1.0 3.0 0.00 0.00 0.00 51 1014.5
20260831062514 85 163 3.0 3.0 0.00 0.00 0.00 51 1014.4
20260831062013 85 214 0.0 3.0 0.00 0.00 0.00 51 1014.5
20260831061511 85 144 0.0 4.0 0.00 0.00 0.00 51 1014.5
20260831061003 85 190 2.0 3.0 0.00 0.00 0.00 51 1014.6
20260831060502 85 193 0.0 3.0 0.00 0.00 0.00 50 1014.4
20260831055956 85 141 0.0 3.0 0.00 0.00 0.00 50 1014.3
20260831055452 85 192 3.0 3.0 0.00 0.00 0.00 50 1014.3
20260831054948 85 197 0.0 2.0 0.00 0.00 0.00 50 1014.3
20260831054447 85 166 2.0 3.0 0.00 0.00 0.00 50 1014.5
20260831053946 85 177 2.0 3.0 0.00 0.00 0.00 50 1014.4
20260831053444 85 228 1.0 3.0 0.00 0.00 0.00 49 1014.5
20260831052939 85 143 0.0 2.0 0.00 0.00 0.00 49 1014.4
20260831052434 85 181 3.0 4.0 0.00 0.00 0.00 50 1014.4
20260831051932 85 127 0.0 2.0 0.00 0.00 0.00 50 1014.3
20260831051431 85 89 0.0 1.0 0.00 0.00 0.00 50 1014.1
20260831050926 85 28 0.0 2.0 0.00 0.00 0.00 50 1014.1
20260831050425 85 123 0.0 2.0 0.00 0.00 0.00 50 1014.0
20260831045923 85 134 1.0 1.0 0.00 0.00 0.00 49 1014.2
20260831045418 85 149 1.0 2.0 0.00 0.00 0.00 49 1014.2
20260831044913 85 135 0.0 0.0 0.00 0.00 0.00 49 1014.1
20260831044408 85 164 0.0 1.0 0.00 0.00 0.00 49 1014.1
20260831043904 86 150 0.0 1.0 0.00 0.00 0.00 48 1014.2
20260831043403 86 217 0.0 1.0 0.00 0.00 0.00 48 1014.3
20260831042859 86 89 0.0 2.0 0.00 0.00 0.00 48 1014.3
20260831042358 86 50 0.0 2.0 0.00 0.00 0.00 48 1014.1
20260831041853 86 145 0.0 0.0 0.00 0.00 0.00 47 1014.0
20260831041352 86 129 0.0 1.0 0.00 0.00 0.00 47 1014.1
20260831040848 86 150 0.0 2.0 0.00 0.00 0.00 47 1014.1
20260831040342 87 66 0.0 1.0 0.00 0.00 0.00 47 1014.2
20260831035840 86 68 0.0 0.0 0.00 0.00 0.00 47 1014.2
20260831035339 87 57 0.0 1.0 0.00 0.00 0.00 47 1014.2
20260831034834 87 141 0.0 2.0 0.00 0.00 0.00 47 1014.3
20260831034329 87 29 0.0 1.0 0.00 0.00 0.00 46 1014.1
20260831033825 87 137 0.0 1.0 0.00 0.00 0.00 47 1014.1
20260831033324 86 135 0.0 1.0 0.00 0.00 0.00 47 1014.1
20260831032820 87 96 0.0 1.0 0.00 0.00 0.00 46 1014.1
20260831032314 87 185 0.0 1.0 0.00 0.00 0.00 46 1014.0
20260831031810 87 154 0.0 1.0 0.00 0.00 0.00 45 1013.9
20260831031309 87 205 0.0 1.0 0.00 0.00 0.00 45 1014.0
20260831030804 87 154 0.0 1.0 0.00 0.00 0.00 45 1014.0
20260831030302 87 147 0.0 0.0 0.00 0.00 0.00 45 1014.0
20260831025801 87 164 0.0 1.0 0.00 0.00 0.00 44 1013.8
20260831025250 87 37 0.0 0.0 0.00 0.00 0.00 44 1013.8
20260831024746 87 129 0.0 0.0 0.00 0.00 0.00 44 1013.8
20260831024245 88 129 0.0 0.0 0.00 0.00 0.00 43 1013.6
20260831023744 88 154 0.0 0.0 0.00 0.00 0.00 43 1013.6
20260831023243 88 172 0.0 1.0 0.00 0.00 0.00 43 1013.7
20260831022738 88 66 0.0 1.0 0.00 0.00 0.00 42 1013.5
20260831022237 88 99 0.0 0.0 0.00 0.00 0.00 42 1013.4
20260831021733 88 160 0.0 0.0 0.00 0.00 0.00 42 1013.3
20260831021232 89 157 0.0 1.0 0.00 0.00 0.00 42 1013.4
20260831020729 89 101 0.0 2.0 0.00 0.00 0.00 41 1013.2
20260831020228 89 58 1.0 2.0 0.00 0.00 0.00 40 1013.2
20260831015723 89 71 0.0 1.0 0.00 0.00 0.00 40 1013.1
20260831015219 89 89 0.0 2.0 0.00 0.00 0.00 40 1013.0
20260831014714 90 62 0.0 0.0 0.00 0.00 0.00 39 1013.1
20260831014208 90 117 0.0 0.0 0.00 0.00 0.00 39 1013.2
20260831013704 91 59 1.0 2.0 0.00 0.00 0.00 38 1013.0
20260831013204 91 140 0.0 1.0 0.00 0.00 0.00 38 1012.8
20260831012659 91 44 0.0 1.0 0.00 0.00 0.00 37 1013.0
20260831012155 92 167 2.0 2.0 0.00 0.00 0.00 37 1012.7
20260831011653 92 191 0.0 2.0 0.00 0.00 0.00 37 1012.8
20260831011150 92 154 0.0 2.0 0.00 0.00 0.00 36 1012.7
20260831010645 93 140 0.0 2.0 0.00 0.00 0.00 36 1012.7
20260831010140 93 136 1.0 2.0 0.00 0.00 0.00 35 1012.7
20260831005634 94 55 0.0 2.0 0.00 0.00 0.00 35 1012.6
20260831005130 94 182 1.0 3.0 0.00 0.00 0.00 34 1012.7
20260831004625 95 347 0.0 3.0 0.00 0.00 0.00 33 1012.6
20260831004121 96 147 3.0 4.0 0.00 0.00 0.00 32 1012.5
20260831003617 96 154 2.0 5.0 0.00 0.00 0.00 32 1012.6
20260831003113 97 173 3.0 5.0 0.00 0.00 0.00 31 1012.7
20260831002611 97 83 1.0 4.0 0.00 0.00 0.00 30 1012.7
20260831002106 98 183 3.0 5.0 0.00 0.00 0.00 30 1012.6
20260831001602 98 58 0.0 3.0 0.00 0.00 0.00 30 1012.7
20260831001058 98 260 0.0 4.0 0.00 0.00 0.00 30 1012.8
20260831000554 98 228 3.0 8.0 0.00 0.00 0.00 29 1012.9
20260831000054 98 130 2.0 4.0 0.00 0.00 0.00 29 1012.6
20260830235552 99 129 2.0 12.0 0.00 0.00 0.00 29 1012.8
20260830235048 99 157 6.0 9.0 0.00 0.00 0.00 29 1012.8
20260830234543 99 147 0.0 7.0 0.00 0.00 0.00 29 1012.8
20260830234038 99 68 2.0 9.0 0.00 0.00 0.00 29 1012.8
20260830233533 100 206 5.0 5.0 0.00 0.00 0.00 28 1012.7
20260830233029 100 156 2.0 4.0 0.00 0.00 0.00 29 1012.9
20260830232525 99 110 2.0 5.0 0.00 0.00 0.00 30 1012.8
20260830232021 100 121 7.0 7.0 0.00 0.00 0.00 29 1013.0
20260830231517 100 120 4.0 7.0 0.00 0.00 0.00 29 1012.9
20260830231016 100 96 4.0 9.0 0.00 0.00 0.00 29 1013.0
20260830230511 100 184 7.0 7.0 0.00 0.00 0.00 29 1012.8
20260830230011 101 140 4.0 9.0 0.00 0.00 0.00 28 1012.9
20260830225507 101 223 2.0 8.0 0.00 0.00 0.00 28 1012.9
20260830225006 101 146 1.0 10.0 0.00 0.00 0.00 29 1013.0
20260830224504 101 194 5.0 7.0 0.00 0.00 0.00 28 1013.1
20260830224001 101 135 4.0 6.0 0.00 0.00 0.00 27 1013.0
20260830223458 101 215 1.0 8.0 0.00 0.00 0.00 28 1013.1
20260830222957 101 103 3.0 7.0 0.00 0.00 0.00 27 1013.0
20260830222452 101 101 0.0 7.0 0.00 0.00 0.00 28 1012.9
20260830221948 100 169 1.0 9.0 0.00 0.00 0.00 28 1013.0
20260830221444 101 123 3.0 6.0 0.00 0.00 0.00 27 1013.0
20260830220939 101 113 2.0 6.0 0.00 0.00 0.00 28 1013.0
20260830220434 101 216 5.0 9.0 0.00 0.00 0.00 28 1013.1
20260830215931 100 352 3.0 8.0 0.00 0.00 0.00 28 1013.2
20260830215426 99 118 2.0 8.0 0.00 0.00 0.00 29 1013.0
20260830214920 100 183 8.0 13.0 0.00 0.00 0.00 28 1013.2
20260830214411 98 164 0.0 8.0 0.00 0.00 0.00 30 1013.3
20260830213910 100 180 6.0 10.0 0.00 0.00 0.00 29 1013.1
20260830213406 101 111 3.0 7.0 0.00 0.00 0.00 29 1013.3
20260830212901 101 135 7.0 8.0 0.00 0.00 0.00 29 1013.3
20260830212357 101 97 5.0 10.0 0.00 0.00 0.00 29 1013.2
20260830211856 99 180 2.0 13.0 0.00 0.00 0.00 30 1013.3
20260830211350 98 135 4.0 5.0 0.00 0.00 0.00 31 1013.5
20260830210846 98 115 3.0 8.0 0.00 0.00 0.00 32 1013.4
20260830210345 99 176 8.0 12.0 0.00 0.00 0.00 31 1013.5
20260830205843 98 194 5.0 9.0 0.00 0.00 0.00 31 1013.5
20260830205343 99 68 2.0 6.0 0.00 0.00 0.00 31 1013.6
20260830204838 98 143 2.0 9.0 0.00 0.00 0.00 31 1013.7
20260830204337 99 209 3.0 6.0 0.00 0.00 0.00 32 1013.7
20260830203832 99 134 4.0 8.0 0.00 0.00 0.00 31 1013.8
20260830203329 101 115 2.0 8.0 0.00 0.00 0.00 30 1013.9
20260830202827 100 116 5.0 10.0 0.00 0.00 0.00 30 1013.9
20260830202323 100 113 4.0 11.0 0.00 0.00 0.00 31 1013.9
20260830201819 101 227 6.0 9.0 0.00 0.00 0.00 30 1014.0
20260830201313 100 102 7.0 7.0 0.00 0.00 0.00 30 1014.0
20260830200808 101 190 5.0 9.0 0.00 0.00 0.00 29 1014.3
20260830200307 101 190 6.0 10.0 0.00 0.00 0.00 29 1014.4
20260830195803 100 143 7.0 7.0 0.00 0.00 0.00 30 1014.4
20260830195305 100 182 5.0 11.0 0.00 0.00 0.00 30 1014.6
20260830194801 101 123 3.0 5.0 0.00 0.00 0.00 31 1014.5
20260830194255 101 143 4.0 9.0 0.00 0.00 0.00 31 1014.6
20260830193750 99 107 2.0 9.0 0.00 0.00 0.00 32 1014.6
20260830193243 99 197 5.0 11.0 0.00 0.00 0.00 32 1014.6
20260830192739 100 167 4.0 8.0 0.00 0.00 0.00 32 1014.7
20260830192234 100 173 3.0 8.0 0.00 0.00 0.00 32 1014.8
20260830191730 99 146 5.0 10.0 0.00 0.00 0.00 33 1014.8
20260830191229 99 187 5.0 11.0 0.00 0.00 0.00 33 1014.8
20260830190725 99 178 3.0 9.0 0.00 0.00 0.00 33 1014.9
20260830190220 98 168 7.0 13.0 0.00 0.00 0.00 34 1015.0
20260830185718 99 208 3.0 9.0 0.00 0.00 0.00 34 1015.1
20260830185214 99 107 7.0 14.0 0.00 0.00 0.00 34 1015.1
20260830184714 99 247 6.0 12.0 0.00 0.00 0.00 34 1015.1
20260830184213 98 92 5.0 7.0 0.00 0.00 0.00 34 1015.1
20260830183708 98 213 9.0 11.0 0.00 0.00 0.00 34 1015.2
20260830183203 98 196 6.0 12.0 0.00 0.00 0.00 35 1015.2
20260830182658 97 101 2.0 14.0 0.00 0.00 0.00 37 1015.3
20260830182154 98 173 2.0 7.0 0.00 0.00 0.00 37 1015.6
20260830181650 97 205 6.0 16.0 0.00 0.00 0.00 37 1015.5
20260830181150 98 114 7.0 9.0 0.00 0.00 0.00 36 1015.6
20260830180649 98 224 8.0 14.0 0.00 0.00 0.00 37 1015.6
20260830180144 97 104 4.0 11.0 0.00 0.00 0.00 37 1015.7
20260830175643 97 98 4.0 10.0 0.00 0.00 0.00 37 1016.0
20260830175139 97 165 5.0 13.0 0.00 0.00 0.00 38 1016.0
20260830174634 98 228 3.0 10.0 0.00 0.00 0.00 37 1015.9
20260830174130 98 190 9.0 11.0 0.00 0.00 0.00 37 1016.2
20260830173624 98 175 3.0 9.0 0.00 0.00 0.00 38 1016.1
20260830173119 97 182 3.0 9.0 0.00 0.00 0.00 38 1016.1
20260830172616 97 202 6.0 9.0 0.00 0.00 0.00 40 1016.2
20260830172113 96 193 1.0 9.0 0.00 0.00 0.00 41 1016.2
20260830171607 96 212 6.0 14.0 0.00 0.00 0.00 41 1016.1
20260830171102 96 282 3.0 10.0 0.00 0.00 0.00 41 1016.3
20260830170556 95 141 5.0 15.0 0.00 0.00 0.00 41 1016.5
20260830170055 95 184 4.0 12.0 0.00 0.00 0.00 41 1016.6
20260830165551 96 207 5.0 11.0 0.00 0.00 0.00 40 1016.7
20260830165046 96 127 2.0 13.0 0.00 0.00 0.00 41 1016.7
20260830164543 96 206 3.0 11.0 0.00 0.00 0.00 41 1016.6
20260830164038 95 99 3.0 8.0 0.00 0.00 0.00 43 1016.8
20260830163535 94 128 7.0 10.0 0.00 0.00 0.00 44 1016.7
20260830163034 94 229 5.0 10.0 0.00 0.00 0.00 46 1016.7
20260830162530 95 219 3.0 11.0 0.00 0.00 0.00 44 1016.7
20260830162025 95 224 5.0 11.0 0.00 0.00 0.00 45 1016.9
20260830161519 93 205 3.0 6.0 0.00 0.00 0.00 46 1016.8
20260830161014 93 220 8.0 9.0 0.00 0.00 0.00 47 1017.0
20260830160510 93 216 3.0 11.0 0.00 0.00 0.00 47 1016.9
20260830160005 94 195 3.0 13.0 0.00 0.00 0.00 46 1017.1
20260830155501 93 243 5.0 5.0 0.00 0.00 0.00 47 1016.9
20260830154957 93 166 2.0 10.0 0.00 0.00 0.00 47 1017.0
20260830154451 92 128 2.0 8.0 0.00 0.00 0.00 48 1016.9
20260830153942 92 180 7.0 10.0 0.00 0.00 0.00 49 1016.9
20260830153438 92 82 2.0 7.0 0.00 0.00 0.00 49 1016.7
20260830152937 91 241 3.0 6.0 0.00 0.00 0.00 50 1016.9
20260830152432 91 302 2.0 9.0 0.00 0.00 0.00 50 1016.8